"AMBIENT TEMP","AMBIENT HUMIDITY","SOIL NITROGEN","SOIL PHOSPHORUS","SOIL POTASSIUM","SOIL TEMPERATURE","SOIL MOISTURE","SOIL PH",DATE,TIME
33.0,97.8,4,5,11,29.31,30.24,5.92,2024-4-30,10:44:46
0.0,0.0,4,5,11,29.41,29.97,5.9,2024-4-30,11:45:59
0.0,0.0,4,5,11,29.49,30.44,5.88,2024-4-30,12:47:32
0.0,0.0,3,5,11,29.71,30.74,5.82,2024-4-30,13:48:45
0.0,0.0,3,5,10,29.86,30.49,5.78,2024-4-30,14:49:57
0.0,0.0,3,5,10,29.91,30.11,5.76,2024-4-30,15:51:10
0.0,0.0,3,5,10,29.95,29.64,5.74,2024-4-30,16:52:22
0.0,0.0,3,5,10,30.03,29.17,5.71,2024-4-30,17:53:36
32.6,98.4,3,4,8,29.38,29.35,5.8,2024-5-1,09:53:46
0.0,0.0,3,4,8,29.6,29.15,5.72,2024-5-1,10:54:59
32.3,99.9,3,4,8,29.6,28.94,5.68,2024-5-1,11:56:00
0.0,0.0,2,4,8,29.63,29.18,5.66,2024-5-1,12:57:13
0.0,0.0,2,4,8,29.66,29.28,5.63,2024-5-1,13:58:26
31.5,99.9,2,3,7,29.62,28.98,5.6,2024-5-1,14:59:28
31.9,97.5,2,3,7,29.71,28.66,5.58,2024-5-1,16:00:41
30.0,99.9,2,3,7,29.52,28.46,5.58,2024-5-1,17:01:43
27.8,99.9,2,3,7,29.43,28.48,6.47,2024-5-1,18:02:47
27.6,99.9,2,3,7,29.38,28.94,6.23,2024-5-1,19:03:49
27.4,99.9,2,3,7,29.38,29.11,6.13,2024-5-1,20:04:52
27.2,99.9,2,3,7,29.38,29.12,6.11,2024-5-1,21:05:55
31.0,99.9,6,9,19,28.43,32.8,6.19,2024-5-2,11:10:33
0.0,0.0,6,9,18,28.64,32.61,6.19,2024-5-2,12:11:46
0.0,0.0,6,8,17,28.85,33.21,6.17,2024-5-2,13:12:58
0.0,0.0,6,8,17,29.07,32.65,6.15,2024-5-2,14:14:09
0.0,0.0,5,8,17,29.07,32.27,6.15,2024-5-2,15:15:23
0.0,0.0,5,8,16,29.14,31.89,6.13,2024-5-2,16:16:35
0.0,0.0,5,7,15,29.26,31.52,6.14,2024-5-2,17:17:47
0.0,0.0,5,7,15,29.18,31.21,6.13,2024-5-2,18:18:58
30.4,99.9,5,7,14,29.17,31.04,6.13,2024-5-2,19:20:00
28.4,99.9,5,7,14,29.09,30.96,6.12,2024-5-2,20:21:01
32.9,98.4,5,7,14,28.91,31.5,6.32,2024-5-3,10:42:18
0.0,0.0,5,7,14,28.96,31.32,6.31,2024-5-3,11:43:30
0.0,0.0,4,6,13,29.15,31.52,0.0,2024-5-3,12:44:42
0.0,0.0,4,6,13,29.37,31.55,6.25,2024-5-3,13:45:54
0.0,0.0,4,6,12,29.49,31.29,6.22,2024-5-3,14:47:06
0.0,0.0,4,6,12,29.5,30.93,6.21,2024-5-3,15:48:18
0.0,0.0,4,5,11,29.51,30.55,6.18,2024-5-3,16:49:31
0.0,0.0,3,5,11,29.6,30.21,6.18,2024-5-3,17:50:43
30.9,99.9,3,5,10,29.41,29.97,6.16,2024-5-3,18:51:44
29.6,99.9,3,5,10,29.38,29.91,6.18,2024-5-3,19:52:47
29.5,99.9,3,5,10,29.29,29.77,6.18,2024-5-3,20:53:51
29.1,99.9,5,8,16,27.9,34.09,6.57,2024-5-4,12:36:14
30.3,99.9,5,7,16,28.22,33.79,6.57,2024-5-4,13:37:17
30.7,97.5,5,7,15,28.32,33.18,6.55,2024-5-4,14:38:20
0.0,0.0,5,8,16,28.45,32.7,6.55,2024-5-4,15:39:33
30.2,99.9,5,8,16,28.54,32.41,6.53,2024-5-4,16:40:36
29.3,99.9,5,7,15,28.54,32.22,6.53,2024-5-4,17:41:39
29.6,99.9,4,6,13,28.11,32.96,6.34,2024-5-5,10:22:21
31.3,99.9,4,6,13,28.3,32.67,6.31,2024-5-5,11:23:25
32.5,97.9,4,6,12,28.52,32.39,6.29,2024-5-5,12:24:27
0.0,0.0,4,6,12,28.64,33.73,6.26,2024-5-5,13:25:41
0.0,0.0,4,6,12,28.76,32.98,6.23,2024-5-5,14:26:53
0.0,0.0,4,5,11,28.86,32.41,6.2,2024-5-5,15:28:06
0.0,0.0,3,5,11,28.92,31.87,6.19,2024-5-5,16:29:19
0.0,0.0,3,5,11,28.99,31.5,6.16,2024-5-5,17:30:32
30.9,99.9,3,5,10,28.87,31.13,6.15,2024-5-5,18:31:35
31.2,99.9,3,4,9,28.39,30.74,6.08,2024-5-6,09:48:02
0.0,0.0,3,4,9,28.6,30.57,6.04,2024-5-6,10:49:14
0.0,0.0,3,4,9,28.75,30.4,6.0,2024-5-6,11:50:26
0.0,0.0,3,4,8,28.75,30.85,5.98,2024-5-6,12:51:38
0.0,0.0,3,4,8,29.06,31.06,5.95,2024-5-6,13:53:01
0.0,0.0,2,4,8,29.07,30.78,5.91,2024-5-6,14:54:15
0.0,0.0,2,4,8,29.05,30.42,5.92,2024-5-6,15:55:27
0.0,0.0,2,3,7,29.07,30.09,5.89,2024-5-6,16:56:38
31.6,99.9,2,3,7,29.06,29.75,5.87,2024-5-6,17:57:40
28.7,99.9,2,3,7,28.43,30.52,5.94,2024-5-7,09:52:10
31.6,99.9,2,3,7,28.64,30.43,5.88,2024-5-7,10:53:13
31.6,99.9,2,3,7,28.75,30.33,5.83,2024-5-7,11:54:17
30.5,99.9,2,3,6,28.75,32.01,5.83,2024-5-7,12:55:20
0.0,0.0,2,3,6,28.75,31.82,5.82,2024-5-7,13:56:33
0.0,0.0,2,3,6,28.84,31.5,5.8,2024-5-7,14:57:45
0.0,0.0,2,3,6,28.85,31.31,5.77,2024-5-7,15:58:58
0.0,0.0,2,3,6,28.85,31.05,5.76,2024-5-7,17:00:10
0.0,0.0,2,3,6,28.87,30.78,5.73,2024-5-7,18:01:22
30.3,99.9,2,3,6,28.85,30.59,5.74,2024-5-7,19:02:24
28.2,99.9,2,3,6,28.75,30.44,5.73,2024-5-7,20:03:29
27.7,99.9,2,3,6,28.75,30.34,5.77,2024-5-7,21:04:32
